DLH4AR EDDF-LICC

Flight info

Callsign DLH4AR
Flight time 2h 4m
Altitude 35000
Route CINDY8S/18 CINDY Z74 LAMPU DCT NOMBO Y161 RIDAR DCT KONIN DCT BERAS DCT LIKDA DCT BAKOR DCT GOTMO DCT PELEN DCT UXUTA
Aircraft A321/M-SDE3FGHIRWY/LB1

Departure

Time 2026-05-06 13:08
Airport Frankfurt Main Airport (EDDF)

Arrival

Time 2026-05-06 15:12
Airport Catania-Fontanarossa Airport (LICC)
Time Latitude Longitude Altitude Speed Heading
2026-05-06 12:34 50.04894 8.56996 356 ft 0 kts 295°
2026-05-06 12:55 50.04886 8.57025 362 ft 4 kts 293°
2026-05-06 12:56 50.04877 8.57055 361 ft 4 kts 296°
2026-05-06 12:56 50.04872 8.57089 364 ft 3 kts 249°
2026-05-06 12:56 50.04865 8.57077 360 ft 4 kts 224°
2026-05-06 12:56 50.04841 8.57062 358 ft 4 kts 197°
2026-05-06 12:57 50.04816 8.57049 360 ft 4 kts 200°
2026-05-06 12:57 50.04797 8.57037 356 ft 0 kts 205°
2026-05-06 13:00 50.04796 8.57036 356 ft 1 kts 205°
2026-05-06 13:00 50.04784 8.57027 362 ft 5 kts 205°
2026-05-06 13:00 50.04739 8.56995 363 ft 8 kts 204°
2026-05-06 13:01 50.04669 8.56945 358 ft 14 kts 205°
2026-05-06 13:01 50.04559 8.56893 361 ft 17 kts 194°
2026-05-06 13:01 50.04451 8.56817 361 ft 19 kts 236°
2026-05-06 13:01 50.04398 8.56605 361 ft 23 kts 250°
2026-05-06 13:02 50.04338 8.56350 358 ft 27 kts 250°
2026-05-06 13:02 50.04269 8.56065 354 ft 29 kts 249°
2026-05-06 13:02 50.04201 8.55777 353 ft 29 kts 250°
2026-05-06 13:02 50.04131 8.55488 354 ft 28 kts 250°
2026-05-06 13:03 50.04064 8.55209 358 ft 27 kts 249°
2026-05-06 13:03 50.04001 8.54944 356 ft 26 kts 249°
2026-05-06 13:03 50.03936 8.54672 356 ft 27 kts 249°
2026-05-06 13:03 50.03870 8.54399 351 ft 26 kts 245°
2026-05-06 13:04 50.03785 8.54159 350 ft 25 kts 249°
2026-05-06 13:04 50.03722 8.53900 343 ft 26 kts 250°
2026-05-06 13:04 50.03660 8.53637 347 ft 26 kts 249°
2026-05-06 13:04 50.03593 8.53375 337 ft 26 kts 250°
2026-05-06 13:05 50.03532 8.53113 335 ft 24 kts 250°
2026-05-06 13:05 50.03486 8.52923 336 ft 17 kts 248°
2026-05-06 13:05 50.03447 8.52789 333 ft 11 kts 248°
2026-05-06 13:05 50.03435 8.52736 333 ft 1 kts 250°
2026-05-06 13:06 50.03432 8.52725 331 ft 0 kts 250°
2026-05-06 13:06 50.03429 8.52713 332 ft 2 kts 251°
2026-05-06 13:06 50.03423 8.52681 333 ft 4 kts 252°
2026-05-06 13:07 50.03396 8.52607 333 ft 12 kts 220°
2026-05-06 13:07 50.03271 8.52597 332 ft 33 kts 182°
2026-05-06 13:07 50.02801 8.52592 334 ft 101 kts 179°
2026-05-06 13:07 50.01895 8.52607 335 ft 156 kts 179°
2026-05-06 13:08 50.00799 8.52611 1057 ft 145 kts 181°
2026-05-06 13:08 49.99778 8.52627 1719 ft 158 kts 183°
2026-05-06 13:08 49.98632 8.52633 2172 ft 172 kts 183°
2026-05-06 13:08 49.97414 8.52796 2677 ft 181 kts 165°
2026-05-06 13:09 49.96328 8.53818 3249 ft 188 kts 137°
2026-05-06 13:09 49.95581 8.55568 3678 ft 204 kts 123°
2026-05-06 13:09 49.94859 8.57552 4088 ft 215 kts 122°
2026-05-06 13:09 49.94193 8.59663 4504 ft 226 kts 111°
2026-05-06 13:10 49.93980 8.62180 4672 ft 247 kts 95°
2026-05-06 13:10 49.93885 8.64976 4832 ft 271 kts 96°
2026-05-06 13:10 49.93510 8.67879 5408 ft 277 kts 114°
2026-05-06 13:10 49.92576 8.70428 6106 ft 276 kts 132°
2026-05-06 13:11 49.91166 8.72425 6777 ft 275 kts 148°
2026-05-06 13:11 49.89599 8.74152 7493 ft 278 kts 145°
2026-05-06 13:11 49.88214 8.76299 8167 ft 286 kts 130°
2026-05-06 13:11 49.87168 8.78956 8866 ft 291 kts 122°
2026-05-06 13:12 49.86178 8.81712 9559 ft 294 kts 122°
2026-05-06 13:12 49.85171 8.84502 10131 ft 302 kts 121°
2026-05-06 13:12 49.84107 8.87444 10257 ft 324 kts 121°
2026-05-06 13:12 49.82965 8.90590 10389 ft 345 kts 121°
2026-05-06 13:13 49.81771 8.93868 10510 ft 364 kts 121°
2026-05-06 13:13 49.80447 8.97278 10833 ft 373 kts 129°
2026-05-06 13:13 49.78679 9.00215 11351 ft 374 kts 137°
2026-05-06 13:13 49.76816 9.03052 11942 ft 377 kts 137°
2026-05-06 13:14 49.74932 9.05898 12517 ft 380 kts 138°
2026-05-06 13:14 49.73038 9.08747 13166 ft 380 kts 138°
2026-05-06 13:14 49.71136 9.11600 13740 ft 383 kts 138°
2026-05-06 13:14 49.69216 9.14476 14267 ft 385 kts 138°
2026-05-06 13:15 49.67315 9.17325 14788 ft 388 kts 138°
2026-05-06 13:15 49.65372 9.20236 15296 ft 390 kts 138°
2026-05-06 13:15 49.63418 9.23161 15796 ft 393 kts 137°
2026-05-06 13:15 49.61450 9.26104 16287 ft 395 kts 138°
2026-05-06 13:16 49.59471 9.29065 16766 ft 398 kts 138°
2026-05-06 13:16 49.57481 9.32040 17266 ft 400 kts 138°
2026-05-06 13:16 49.55475 9.35032 17729 ft 402 kts 138°
2026-05-06 13:16 49.53457 9.38033 18167 ft 405 kts 138°
2026-05-06 13:17 49.51427 9.41051 18568 ft 407 kts 138°
2026-05-06 13:17 49.49413 9.44051 18962 ft 409 kts 138°
2026-05-06 13:17 49.47364 9.47096 19406 ft 410 kts 139°
2026-05-06 13:17 49.45305 9.50144 19832 ft 412 kts 139°
2026-05-06 13:18 49.43235 9.53206 20251 ft 414 kts 139°
2026-05-06 13:18 49.41157 9.56281 20664 ft 416 kts 138°
2026-05-06 13:18 49.39063 9.59370 21071 ft 418 kts 139°
2026-05-06 13:18 49.36957 9.62466 21470 ft 420 kts 139°
2026-05-06 13:19 49.34841 9.65578 21866 ft 422 kts 138°
2026-05-06 13:19 49.32721 9.68713 22258 ft 424 kts 138°
2026-05-06 13:19 49.30641 9.71856 22641 ft 427 kts 137°
2026-05-06 13:19 49.28540 9.75083 23022 ft 429 kts 137°
2026-05-06 13:20 49.26433 9.78336 23400 ft 431 kts 137°
2026-05-06 13:20 49.24315 9.81598 23683 ft 434 kts 137°
2026-05-06 13:20 49.22176 9.84879 23965 ft 436 kts 137°
2026-05-06 13:20 49.20023 9.88162 24252 ft 438 kts 138°
2026-05-06 13:21 49.17854 9.91455 24562 ft 440 kts 138°
2026-05-06 13:21 49.15671 9.94758 24880 ft 442 kts 138°
2026-05-06 13:21 49.13509 9.98022 25183 ft 444 kts 139°
2026-05-06 13:21 49.11307 10.01342 25486 ft 446 kts 139°
2026-05-06 13:22 49.09095 10.04671 25785 ft 448 kts 139°
2026-05-06 13:22 49.06876 10.08017 26071 ft 450 kts 139°
2026-05-06 13:22 49.04636 10.11358 26348 ft 451 kts 140°
2026-05-06 13:22 49.02360 10.14644 26617 ft 452 kts 141°
2026-05-06 13:23 49.00048 10.17900 26843 ft 453 kts 142°
2026-05-06 13:23 48.97716 10.21137 27068 ft 454 kts 143°
2026-05-06 13:23 48.95375 10.24375 27301 ft 456 kts 143°
2026-05-06 13:23 48.93065 10.27586 27579 ft 456 kts 143°
2026-05-06 13:24 48.90735 10.30856 27901 ft 455 kts 142°
2026-05-06 13:24 48.88422 10.34125 28227 ft 454 kts 142°
2026-05-06 13:24 48.86112 10.37394 28546 ft 453 kts 143°
2026-05-06 13:24 48.83806 10.40651 28880 ft 452 kts 143°
2026-05-06 13:25 48.81525 10.43945 29212 ft 453 kts 142°
2026-05-06 13:25 48.79316 10.47354 29546 ft 453 kts 140°
2026-05-06 13:25 48.77160 10.50846 29841 ft 454 kts 139°
2026-05-06 13:25 48.75027 10.54372 30063 ft 454 kts 139°
2026-05-06 13:26 48.72924 10.57845 30326 ft 453 kts 140°
2026-05-06 13:26 48.70781 10.61331 30568 ft 451 kts 142°
2026-05-06 13:26 48.68385 10.64257 30792 ft 437 kts 155°
2026-05-06 13:26 48.65780 10.66613 31016 ft 436 kts 156°
2026-05-06 13:27 48.63167 10.68946 31253 ft 436 kts 156°
2026-05-06 13:27 48.60553 10.71266 31490 ft 435 kts 156°
2026-05-06 13:27 48.57939 10.73576 31732 ft 435 kts 156°
2026-05-06 13:27 48.55353 10.75863 31985 ft 435 kts 156°
2026-05-06 13:28 48.52757 10.78161 32231 ft 434 kts 156°
2026-05-06 13:28 48.50154 10.80465 32461 ft 434 kts 156°
2026-05-06 13:28 48.47550 10.82770 32695 ft 434 kts 156°
2026-05-06 13:28 48.44951 10.85073 32889 ft 434 kts 157°
2026-05-06 13:29 48.42349 10.87374 33115 ft 433 kts 157°
2026-05-06 13:29 48.39748 10.89669 33341 ft 433 kts 157°
2026-05-06 13:29 48.37148 10.91960 33571 ft 433 kts 157°
2026-05-06 13:29 48.34548 10.94248 33798 ft 433 kts 157°
2026-05-06 13:30 48.31984 10.96505 33989 ft 433 kts 157°
2026-05-06 13:30 48.29388 10.98787 34174 ft 433 kts 157°
2026-05-06 13:30 48.26792 11.01065 34355 ft 432 kts 157°
2026-05-06 13:30 48.24192 11.03341 34536 ft 432 kts 156°
2026-05-06 13:31 48.21594 11.05612 34711 ft 433 kts 156°
2026-05-06 13:31 48.16377 11.10157 34781 ft 434 kts 156°
2026-05-06 13:32 48.11190 11.14661 34750 ft 434 kts 157°
2026-05-06 13:32 48.06001 11.19172 34774 ft 430 kts 157°
2026-05-06 13:33 48.00831 11.23662 34782 ft 429 kts 157°
2026-05-06 13:33 47.98148 11.25474 34784 ft 417 kts 170°
2026-05-06 13:33 47.95350 11.26532 34784 ft 415 kts 172°
2026-05-06 13:34 47.89730 11.28527 34775 ft 415 kts 173°
2026-05-06 13:34 47.84142 11.30489 34776 ft 415 kts 173°
2026-05-06 13:35 47.78521 11.32460 34761 ft 415 kts 173°
2026-05-06 13:35 47.72898 11.34429 34752 ft 415 kts 173°
2026-05-06 13:36 47.67275 11.36396 34755 ft 415 kts 173°
2026-05-06 13:36 47.61693 11.38348 34713 ft 415 kts 174°
2026-05-06 13:37 47.56080 11.40308 34747 ft 414 kts 173°
2026-05-06 13:37 47.50479 11.42265 34766 ft 413 kts 173°
2026-05-06 13:38 47.44880 11.44213 34782 ft 413 kts 174°
2026-05-06 13:38 47.39281 11.46155 34786 ft 415 kts 174°
2026-05-06 13:39 47.33709 11.48076 34795 ft 413 kts 174°
2026-05-06 13:39 47.28118 11.49995 34797 ft 412 kts 174°
2026-05-06 13:40 47.22534 11.51904 34796 ft 412 kts 174°
2026-05-06 13:40 47.16951 11.53825 34783 ft 412 kts 174°
2026-05-06 13:41 47.11407 11.55734 34789 ft 412 kts 174°
2026-05-06 13:41 47.05821 11.57646 34783 ft 413 kts 174°
2026-05-06 13:42 47.00217 11.59552 34806 ft 414 kts 174°
2026-05-06 13:42 46.94606 11.61474 34832 ft 414 kts 174°
2026-05-06 13:43 46.88986 11.63389 34848 ft 415 kts 174°
2026-05-06 13:43 46.83398 11.65279 34855 ft 415 kts 174°
2026-05-06 13:44 46.77777 11.67184 34853 ft 415 kts 174°
2026-05-06 13:44 46.72157 11.69085 34869 ft 415 kts 174°
2026-05-06 13:45 46.66525 11.70974 34878 ft 415 kts 174°
2026-05-06 13:45 46.58125 11.73822 34885 ft 416 kts 173°
2026-05-06 13:46 46.52516 11.75891 34891 ft 416 kts 173°
2026-05-06 13:46 46.46910 11.77999 34905 ft 417 kts 173°
2026-05-06 13:47 46.41305 11.80073 34904 ft 416 kts 173°
2026-05-06 13:47 46.35724 11.82099 34912 ft 416 kts 173°
2026-05-06 13:48 46.30106 11.84141 34919 ft 416 kts 173°
2026-05-06 13:48 46.24490 11.86186 34921 ft 417 kts 173°
2026-05-06 13:49 46.18866 11.88232 34926 ft 417 kts 173°
2026-05-06 13:49 46.13243 11.90272 34925 ft 416 kts 173°
2026-05-06 13:50 46.07670 11.92283 34931 ft 416 kts 173°
2026-05-06 13:50 46.02052 11.94301 34940 ft 416 kts 173°
2026-05-06 13:51 45.96430 11.96326 34899 ft 416 kts 172°
2026-05-06 13:51 45.90805 11.98354 34925 ft 418 kts 172°
2026-05-06 13:52 45.85209 12.00355 34937 ft 417 kts 173°
2026-05-06 13:52 45.79574 12.02364 34945 ft 418 kts 172°
2026-05-06 13:53 45.73940 12.04384 34948 ft 417 kts 172°
2026-05-06 13:53 45.68307 12.06391 34931 ft 417 kts 173°
2026-05-06 13:54 45.62711 12.08371 34938 ft 417 kts 173°
2026-05-06 13:54 45.57066 12.10370 34942 ft 418 kts 173°
2026-05-06 13:55 45.51425 12.12367 34936 ft 419 kts 173°
2026-05-06 13:55 45.45793 12.14357 34907 ft 418 kts 173°
2026-05-06 13:56 45.40139 12.16332 34923 ft 419 kts 173°
2026-05-06 13:56 45.34522 12.18310 34919 ft 419 kts 173°
2026-05-06 13:57 45.28864 12.20301 34919 ft 420 kts 172°
2026-05-06 13:57 45.23184 12.22298 34925 ft 421 kts 172°
2026-05-06 13:58 45.17496 12.24296 34929 ft 421 kts 172°
2026-05-06 13:58 45.11846 12.26263 34929 ft 421 kts 172°
2026-05-06 13:59 45.06148 12.28232 34910 ft 422 kts 172°
2026-05-06 13:59 45.00438 12.30209 34920 ft 423 kts 172°
2026-05-06 14:00 44.94722 12.32197 34908 ft 424 kts 172°
2026-05-06 14:00 44.88991 12.34185 34895 ft 425 kts 172°
2026-05-06 14:01 44.83287 12.36159 34910 ft 425 kts 172°
2026-05-06 14:01 44.77532 12.38146 34913 ft 426 kts 172°
2026-05-06 14:02 44.71777 12.40123 34915 ft 426 kts 172°
2026-05-06 14:02 44.66023 12.42096 34901 ft 426 kts 172°
2026-05-06 14:03 44.60259 12.44065 34908 ft 427 kts 172°
2026-05-06 14:03 44.54529 12.46021 34918 ft 427 kts 172°
2026-05-06 14:04 44.48752 12.47991 34910 ft 427 kts 172°
2026-05-06 14:04 44.42963 12.49964 34899 ft 429 kts 172°
2026-05-06 14:05 44.37160 12.51935 34905 ft 429 kts 173°
2026-05-06 14:05 44.31390 12.53890 34913 ft 430 kts 173°
2026-05-06 14:06 44.25565 12.55852 34915 ft 431 kts 173°
2026-05-06 14:06 44.19737 12.57818 34925 ft 431 kts 173°
2026-05-06 14:07 44.13900 12.59790 34936 ft 432 kts 173°
2026-05-06 14:07 44.08103 12.61747 34940 ft 432 kts 173°
2026-05-06 14:08 44.02265 12.63708 34939 ft 431 kts 173°
2026-05-06 14:08 43.96427 12.65658 34942 ft 431 kts 173°
2026-05-06 14:09 43.90595 12.67614 34934 ft 431 kts 173°
2026-05-06 14:09 43.84804 12.69546 34942 ft 431 kts 174°
2026-05-06 14:10 43.78978 12.71477 34938 ft 430 kts 173°
2026-05-06 14:10 43.73162 12.73410 34942 ft 430 kts 173°
2026-05-06 14:11 43.68333 12.75015 34908 ft 430 kts 173°
2026-05-06 14:11 43.61547 12.77262 34921 ft 429 kts 174°
2026-05-06 14:12 43.55773 12.79166 34936 ft 429 kts 174°
2026-05-06 14:12 43.49968 12.81074 34912 ft 429 kts 174°
2026-05-06 14:13 43.45148 12.82658 34933 ft 428 kts 174°
2026-05-06 14:13 43.38425 12.84870 34959 ft 427 kts 174°
2026-05-06 14:14 43.32648 12.86768 34965 ft 427 kts 174°
2026-05-06 14:14 43.26869 12.88657 34930 ft 427 kts 174°
2026-05-06 14:15 43.22065 12.90226 34944 ft 427 kts 174°
2026-05-06 14:15 43.16287 12.92140 34954 ft 427 kts 173°
2026-05-06 14:16 43.09572 12.94458 34961 ft 429 kts 173°
2026-05-06 14:16 43.04763 12.96118 34960 ft 429 kts 173°
2026-05-06 14:17 42.98979 12.98089 34969 ft 429 kts 173°
2026-05-06 14:17 42.93190 13.00056 34980 ft 429 kts 173°
2026-05-06 14:18 42.87393 13.02020 34979 ft 429 kts 173°
2026-05-06 14:18 42.81598 13.03986 34986 ft 429 kts 173°
2026-05-06 14:19 42.75845 13.05934 35001 ft 429 kts 173°
2026-05-06 14:19 42.70044 13.07889 35007 ft 429 kts 173°
2026-05-06 14:20 42.64245 13.09839 34992 ft 429 kts 173°
2026-05-06 14:20 42.58439 13.11787 35001 ft 430 kts 173°
2026-05-06 14:21 42.52623 13.13725 34986 ft 431 kts 173°
2026-05-06 14:21 42.46834 13.15659 34967 ft 432 kts 173°
2026-05-06 14:22 42.40993 13.17613 34983 ft 432 kts 173°
2026-05-06 14:22 42.35145 13.19564 34996 ft 433 kts 173°
2026-05-06 14:23 42.29285 13.21527 35004 ft 434 kts 173°
2026-05-06 14:23 42.23458 13.23473 34999 ft 434 kts 173°
2026-05-06 14:24 42.17579 13.25431 35007 ft 435 kts 174°
2026-05-06 14:24 42.11697 13.27375 35012 ft 435 kts 174°
2026-05-06 14:25 42.05812 13.29320 35019 ft 436 kts 173°
2026-05-06 14:25 41.99920 13.31266 35020 ft 436 kts 173°
2026-05-06 14:26 41.94068 13.33194 35025 ft 436 kts 174°
2026-05-06 14:26 41.88171 13.35124 35037 ft 436 kts 174°
2026-05-06 14:27 41.82273 13.37051 35018 ft 436 kts 174°
2026-05-06 14:27 41.76407 13.38979 35019 ft 437 kts 174°
2026-05-06 14:28 41.70490 13.40920 35027 ft 438 kts 174°
2026-05-06 14:28 41.64562 13.42852 35035 ft 439 kts 174°
2026-05-06 14:29 41.58625 13.44775 35029 ft 439 kts 174°
2026-05-06 14:29 41.52683 13.46701 35035 ft 440 kts 174°
2026-05-06 14:30 41.46776 13.48618 35033 ft 440 kts 174°
2026-05-06 14:30 41.40830 13.50551 35012 ft 440 kts 174°
2026-05-06 14:31 41.34882 13.52473 35011 ft 440 kts 175°
2026-05-06 14:31 41.28921 13.54391 35026 ft 441 kts 175°
2026-05-06 14:32 41.22990 13.56299 35033 ft 441 kts 175°
2026-05-06 14:32 41.17025 13.58212 35024 ft 441 kts 175°
2026-05-06 14:33 41.11062 13.60126 35036 ft 441 kts 175°
2026-05-06 14:33 41.05102 13.62040 35041 ft 441 kts 175°
2026-05-06 14:34 40.99184 13.63929 35043 ft 440 kts 175°
2026-05-06 14:34 40.93228 13.65828 35037 ft 440 kts 174°
2026-05-06 14:35 40.87286 13.67722 35044 ft 439 kts 174°
2026-05-06 14:35 40.81356 13.69608 35047 ft 438 kts 174°
2026-05-06 14:36 40.75472 13.71470 35047 ft 437 kts 174°
2026-05-06 14:36 40.69559 13.73337 35037 ft 437 kts 174°
2026-05-06 14:37 40.63646 13.75205 35046 ft 437 kts 174°
2026-05-06 14:37 40.57736 13.77069 35042 ft 437 kts 174°
2026-05-06 14:38 40.51865 13.78923 35032 ft 437 kts 174°
2026-05-06 14:38 40.45952 13.80776 35024 ft 437 kts 174°
2026-05-06 14:39 40.40031 13.82626 35028 ft 438 kts 174°
2026-05-06 14:39 40.34104 13.84484 35026 ft 438 kts 173°
2026-05-06 14:40 40.28216 13.86322 35003 ft 438 kts 173°
2026-05-06 14:40 40.22270 13.88172 35004 ft 440 kts 173°
2026-05-06 14:41 40.16308 13.90033 35011 ft 441 kts 173°
2026-05-06 14:41 40.10332 13.91894 35018 ft 442 kts 173°
2026-05-06 14:42 40.04390 13.93735 35005 ft 442 kts 173°
2026-05-06 14:42 39.98400 13.95588 35015 ft 443 kts 173°
2026-05-06 14:43 39.92409 13.97454 35023 ft 443 kts 173°
2026-05-06 14:43 39.86411 13.99308 35025 ft 443 kts 173°
2026-05-06 14:44 39.80452 14.01139 35026 ft 443 kts 173°
2026-05-06 14:45 39.71453 14.03880 35024 ft 443 kts 173°
2026-05-06 14:45 39.65458 14.05712 35028 ft 443 kts 173°
2026-05-06 14:46 39.59462 14.07546 35012 ft 443 kts 173°
2026-05-06 14:46 39.53499 14.09375 35017 ft 443 kts 173°
2026-05-06 14:47 39.47491 14.11215 35019 ft 444 kts 173°
2026-05-06 14:47 39.41486 14.13051 35017 ft 444 kts 173°
2026-05-06 14:48 39.35479 14.14884 35000 ft 444 kts 173°
2026-05-06 14:48 39.29494 14.16698 35000 ft 445 kts 173°
2026-05-06 14:49 39.23461 14.18523 35004 ft 446 kts 173°
2026-05-06 14:49 39.17421 14.20343 35010 ft 446 kts 173°
2026-05-06 14:50 39.11376 14.22162 34982 ft 447 kts 173°
2026-05-06 14:50 39.05337 14.23991 34980 ft 450 kts 173°
2026-05-06 14:51 38.99227 14.25833 34980 ft 452 kts 173°
2026-05-06 14:51 38.93100 14.27675 34988 ft 453 kts 173°
2026-05-06 14:52 38.86957 14.29516 34981 ft 454 kts 173°
2026-05-06 14:52 38.80847 14.31347 34995 ft 454 kts 173°
2026-05-06 14:53 38.74693 14.33185 35000 ft 454 kts 173°
2026-05-06 14:53 38.68530 14.35021 34987 ft 455 kts 172°
2026-05-06 14:54 38.62367 14.36857 34989 ft 455 kts 172°
2026-05-06 14:54 38.56193 14.38688 34996 ft 455 kts 172°
2026-05-06 14:55 38.50061 14.40512 34991 ft 456 kts 172°
2026-05-06 14:55 38.43884 14.42338 34984 ft 456 kts 172°
2026-05-06 14:56 38.37699 14.44161 34919 ft 458 kts 172°
2026-05-06 14:56 38.34574 14.45114 34040 ft 466 kts 168°
2026-05-06 14:56 38.31498 14.46563 32911 ft 478 kts 159°
2026-05-06 14:56 38.28473 14.48366 31825 ft 482 kts 159°
2026-05-06 14:57 38.25467 14.50156 30870 ft 483 kts 159°
2026-05-06 14:57 38.22423 14.51964 29939 ft 483 kts 159°
2026-05-06 14:57 38.19378 14.53770 28870 ft 483 kts 159°
2026-05-06 14:57 38.16338 14.55569 27858 ft 482 kts 159°
2026-05-06 14:58 38.13305 14.57360 26883 ft 480 kts 159°
2026-05-06 14:58 38.10283 14.59142 25940 ft 477 kts 159°
2026-05-06 14:58 38.07281 14.60909 25025 ft 474 kts 159°
2026-05-06 14:58 38.04222 14.62355 24202 ft 464 kts 170°
2026-05-06 14:59 38.01111 14.62846 23460 ft 452 kts 182°
2026-05-06 14:59 37.97985 14.62899 22579 ft 446 kts 182°
2026-05-06 14:59 37.94896 14.62930 21708 ft 442 kts 183°
2026-05-06 14:59 37.91840 14.62949 20871 ft 437 kts 183°
2026-05-06 15:00 37.88813 14.62965 20072 ft 432 kts 183°
2026-05-06 15:00 37.85833 14.62987 19285 ft 420 kts 183°
2026-05-06 15:00 37.83000 14.63016 18514 ft 395 kts 182°
2026-05-06 15:00 37.80327 14.63046 17678 ft 374 kts 183°
2026-05-06 15:01 37.77788 14.63070 16865 ft 355 kts 183°
2026-05-06 15:01 37.75412 14.63091 16146 ft 338 kts 182°
2026-05-06 15:01 37.73110 14.63110 15424 ft 324 kts 182°
2026-05-06 15:01 37.70904 14.63128 14753 ft 311 kts 182°
2026-05-06 15:02 37.68779 14.63232 14144 ft 301 kts 179°
2026-05-06 15:02 37.66728 14.63432 13532 ft 291 kts 178°
2026-05-06 15:02 37.64745 14.63668 12871 ft 282 kts 177°
2026-05-06 15:02 37.62819 14.63907 12248 ft 274 kts 177°
2026-05-06 15:03 37.60942 14.64136 11629 ft 268 kts 177°
2026-05-06 15:03 37.59132 14.64346 11028 ft 262 kts 177°
2026-05-06 15:03 37.57332 14.64548 10429 ft 258 kts 177°
2026-05-06 15:03 37.55562 14.64744 9835 ft 253 kts 177°
2026-05-06 15:04 37.53821 14.64934 9187 ft 249 kts 177°
2026-05-06 15:04 37.52107 14.65116 8551 ft 245 kts 177°
2026-05-06 15:04 37.50416 14.65297 7926 ft 242 kts 177°
2026-05-06 15:04 37.48743 14.65478 7322 ft 241 kts 176°
2026-05-06 15:05 37.47082 14.65657 6749 ft 238 kts 176°
2026-05-06 15:05 37.45483 14.65908 6257 ft 231 kts 163°
2026-05-06 15:05 37.44160 14.66954 5838 ft 228 kts 133°
2026-05-06 15:05 37.43501 14.68766 5381 ft 236 kts 99°
2026-05-06 15:06 37.43585 14.70848 4931 ft 240 kts 88°
2026-05-06 15:06 37.43771 14.72936 4484 ft 240 kts 85°
2026-05-06 15:06 37.43962 14.75011 4120 ft 237 kts 85°
2026-05-06 15:06 37.44148 14.77045 3770 ft 231 kts 86°
2026-05-06 15:07 37.44323 14.79033 3429 ft 227 kts 86°
2026-05-06 15:07 37.44485 14.80959 3091 ft 223 kts 86°
2026-05-06 15:07 37.44647 14.82844 2973 ft 208 kts 85°
2026-05-06 15:07 37.44796 14.84563 2979 ft 187 kts 84°
2026-05-06 15:08 37.44933 14.86156 2940 ft 181 kts 86°
2026-05-06 15:08 37.45065 14.87699 2764 ft 177 kts 86°
2026-05-06 15:08 37.45194 14.89195 2553 ft 168 kts 84°
2026-05-06 15:08 37.45317 14.90631 2341 ft 161 kts 85°
2026-05-06 15:09 37.45435 14.92003 2137 ft 157 kts 85°
2026-05-06 15:09 37.45550 14.93362 1921 ft 154 kts 86°
2026-05-06 15:09 37.45661 14.94647 1734 ft 142 kts 88°
2026-05-06 15:09 37.45761 14.95813 1556 ft 133 kts 86°
2026-05-06 15:10 37.45860 14.96983 1365 ft 135 kts 86°
2026-05-06 15:10 37.45958 14.98140 1201 ft 133 kts 87°
2026-05-06 15:10 37.46057 14.99296 1026 ft 130 kts 86°
2026-05-06 15:10 37.46153 15.00431 856 ft 132 kts 84°
2026-05-06 15:11 37.46252 15.01598 685 ft 131 kts 85°
2026-05-06 15:11 37.46348 15.02731 516 ft 128 kts 82°
2026-05-06 15:11 37.46444 15.03872 335 ft 135 kts 85°
2026-05-06 15:11 37.46542 15.05033 160 ft 131 kts 84°
2026-05-06 15:12 37.46635 15.06135 48 ft 115 kts 84°
2026-05-06 15:12 37.46701 15.06928 52 ft 66 kts 84°
2026-05-06 15:12 37.46734 15.07320 52 ft 30 kts 84°
2026-05-06 15:12 37.46768 15.07572 50 ft 29 kts 70°
2026-05-06 15:13 37.46847 15.07755 52 ft 18 kts 54°
2026-05-06 15:13 37.46922 15.07794 50 ft 13 kts 328°
2026-05-06 15:13 37.46933 15.07683 52 ft 14 kts 266°
2026-05-06 15:13 37.46921 15.07556 48 ft 16 kts 263°
2026-05-06 15:14 37.46908 15.07414 50 ft 17 kts 263°
2026-05-06 15:14 37.46896 15.07258 52 ft 19 kts 264°
2026-05-06 15:14 37.46883 15.07090 51 ft 20 kts 263°
2026-05-06 15:14 37.46867 15.06909 51 ft 22 kts 264°
2026-05-06 15:15 37.46851 15.06720 51 ft 19 kts 264°
2026-05-06 15:15 37.46842 15.06609 51 ft 8 kts 263°
2026-05-06 15:15 37.46858 15.06550 48 ft 8 kts 342°
2026-05-06 15:15 37.46903 15.06561 49 ft 8 kts 20°
2026-05-06 15:16 37.46928 15.06572 51 ft 0 kts 20°
2026-05-06 15:16 37.46930 15.06573 51 ft 0 kts 20°